This is the latest recevied weather packets stored in our database for station/object DL3NDS-WX. If no packets are shown the sender has not sent any weather packets the latest 1 day(s).
| Time | Temp. | Humidity | Pressure | Rain* | Wind** | Luminosity | Snow |
|---|---|---|---|---|---|---|---|
| 1777948305 | 12.78° C | 80% | 1011.5 hPa | 0 mm | 4.02 m/s, 339° | 0 W/m² | - |
| 1777948245 | 12.78° C | 80% | 1011.6 hPa | 0 mm | 4.02 m/s, 317° | 0 W/m² | - |
| 1777948214 | 12.78° C | 80% | 1011.6 hPa | 0 mm | 3.58 m/s, 328° | 0 W/m² | - |
| 1777948181 | 12.78° C | 80% | 1011.7 hPa | 0 mm | 4.02 m/s, 316° | 0 W/m² | - |
| 1777948069 | 12.78° C | 80% | 1011.7 hPa | 0 mm | 4.02 m/s, 331° | 0 W/m² | - |
| 1777947999 | 12.78° C | 81% | 1011.7 hPa | 0 mm | 3.58 m/s, 318° | 0 W/m² | - |
| 1777947938 | 12.78° C | 81% | 1011.7 hPa | 0 mm | 2.68 m/s, 322° | 0 W/m² | - |
| 1777947876 | 12.78° C | 81% | 1011.7 hPa | 0 mm | 3.13 m/s, 326° | 0 W/m² | - |
| 1777947820 | 12.78° C | 81% | 1011.7 hPa | 0 mm | 4.02 m/s, 330° | 0 W/m² | - |
| 1777947755 | 12.78° C | 81% | 1011.7 hPa | 0 mm | 4.02 m/s, 332° | 0 W/m² | - |
| 1777947695 | 12.78° C | 81% | 1011.7 hPa | 0 mm | 4.02 m/s, 314° | 0 W/m² | - |
| 1777947639 | 12.78° C | 81% | 1011.8 hPa | 0 mm | 3.58 m/s, 326° | 0 W/m² | - |
| 1777947570 | 12.78° C | 80% | 1011.8 hPa | 0 mm | 3.13 m/s, 316° | 0 W/m² | - |
| 1777947512 | 12.78° C | 80% | 1011.8 hPa | 0 mm | 4.02 m/s, 316° | 0 W/m² | - |
| 1777947452 | 12.78° C | 80% | 1011.8 hPa | 0 mm | 3.58 m/s, 322° | 0 W/m² | - |
| 1777947390 | 12.78° C | 80% | 1011.7 hPa | 0 mm | 3.58 m/s, 319° | 0 W/m² | - |
| 1777947325 | 12.78° C | 80% | 1011.7 hPa | 0 mm | 3.13 m/s, 325° | 0 W/m² | - |
| 1777947267 | 12.78° C | 80% | 1011.8 hPa | 0 mm | 2.68 m/s, 325° | 0 W/m² | - |
| 1777947208 | 13.33° C | 80% | 1011.8 hPa | 0 mm | 3.13 m/s, 318° | 0 W/m² | - |
| 1777947143 | 13.33° C | 80% | 1011.8 hPa | 0 mm | 3.58 m/s, 326° | 0 W/m² | - |
| 1777947083 | 13.33° C | 80% | 1011.8 hPa | 0 mm | 3.58 m/s, 320° | 0 W/m² | - |
| 1777947021 | 13.33° C | 80% | 1011.8 hPa | 0 mm | 3.13 m/s, 314° | 0 W/m² | - |
| 1777946961 | 13.33° C | 80% | 1011.8 hPa | 0 mm | 2.68 m/s, 323° | 0 W/m² | - |
| 1777946904 | 13.33° C | 80% | 1011.9 hPa | 0 mm | 3.13 m/s, 328° | 0 W/m² | - |
| 1777946839 | 13.33° C | 80% | 1011.9 hPa | 0 mm | 4.02 m/s, 320° | 0 W/m² | - |
* Rain latest hour (hover to see other rain measurements)
** Current wind speed in m/s (hover to see current wind gust speed)